Time,TemperatureF,DewpointF,PressureIn,WindDirection,WindDirectionDegrees,WindSpeedMPH,WindSpeedGustMPH,Humidity,HourlyPrecipIn,Conditions,Clouds,dailyrainin,SoftwareType,DateUTC
2013-03-12 00:11:00,36.4,31.0,30.08,SSW,211,0.0,0.0,80,0.00,,,0.00,weatherlink.com 1.10,2013-03-12 05:11:00,
2013-03-12 00:26:00,36.4,31.0,30.08,SSW,211,0.0,0.0,81,0.00,,,0.00,weatherlink.com 1.10,2013-03-12 05:26:00,
2013-03-12 00:56:00,35.4,30.0,30.08,SSW,211,0.0,0.0,82,0.00,,,0.00,weatherlink.com 1.10,2013-03-12 05:56:00,
2013-03-12 01:11:00,35.0,31.0,30.08,SSW,212,0.0,0.0,84,0.00,,,0.00,weatherlink.com 1.10,2013-03-12 06:11:00,
2013-03-12 01:26:00,34.2,30.0,30.08,SSW,211,0.0,0.0,84,0.00,,,0.00,weatherlink.com 1.10,2013-03-12 06:26:00,
2013-03-12 01:42:00,34.3,31.0,30.08,SSW,211,0.0,1.0,86,0.00,,,0.00,weatherlink.com 1.10,2013-03-12 06:42:00,
2013-03-12 01:56:00,33.9,31.0,30.08,SSW,212,0.0,0.0,87,0.00,,,0.00,weatherlink.com 1.10,2013-03-12 06:56:00,
2013-03-12 02:11:00,33.6,30.0,30.09,SSW,211,0.0,0.0,87,0.00,,,0.00,weatherlink.com 1.10,2013-03-12 07:11:00,
2013-03-12 02:26:00,33.2,30.0,30.08,SSW,211,0.0,0.0,89,0.00,,,0.00,weatherlink.com 1.10,2013-03-12 07:26:00,
2013-03-12 02:41:00,33.1,30.0,30.09,SSW,211,0.0,0.0,88,0.00,,,0.00,weatherlink.com 1.10,2013-03-12 07:41:00,
2013-03-12 02:57:00,32.5,29.0,30.09,SSW,211,0.0,0.0,88,0.00,,,0.00,weatherlink.com 1.10,2013-03-12 07:57:00,
2013-03-12 03:12:00,32.5,30.0,30.09,SSW,211,0.0,0.0,89,0.00,,,0.00,weatherlink.com 1.10,2013-03-12 08:12:00,
2013-03-12 03:27:00,32.2,30.0,30.08,SSW,211,0.0,0.0,90,0.00,,,0.00,weatherlink.com 1.10,2013-03-12 08:27:00,
2013-03-12 03:42:00,31.8,29.0,30.08,SSW,211,0.0,0.0,89,0.00,,,0.00,weatherlink.com 1.10,2013-03-12 08:42:00,
2013-03-12 03:57:00,31.7,29.0,30.07,SSW,211,0.0,0.0,90,0.00,,,0.00,weatherlink.com 1.10,2013-03-12 08:57:00,
2013-03-12 04:12:00,31.3,29.0,30.07,SSW,211,0.0,0.0,90,0.00,,,0.00,weatherlink.com 1.10,2013-03-12 09:12:00,
2013-03-12 04:27:00,31.2,29.0,30.07,SSW,211,0.0,0.0,90,0.00,,,0.00,weatherlink.com 1.10,2013-03-12 09:27:00,
2013-03-12 04:42:00,30.9,28.0,30.08,SSW,211,0.0,0.0,90,0.00,,,0.00,weatherlink.com 1.10,2013-03-12 09:42:00,
2013-03-12 04:57:00,30.7,28.0,30.08,SSW,211,0.0,0.0,91,0.00,,,0.00,weatherlink.com 1.10,2013-03-12 09:57:00,
2013-03-12 05:12:00,30.2,28.0,30.08,SSW,211,0.0,0.0,91,0.00,,,0.00,weatherlink.com 1.10,2013-03-12 10:12:00,
2013-03-12 05:27:00,29.7,27.0,30.08,SSW,211,0.0,0.0,91,0.00,,,0.00,weatherlink.com 1.10,2013-03-12 10:27:00,
2013-03-12 05:42:00,29.7,28.0,30.08,SSW,211,0.0,0.0,92,0.00,,,0.00,weatherlink.com 1.10,2013-03-12 10:42:00,
2013-03-12 05:57:00,29.7,28.0,30.08,SSW,211,0.0,0.0,92,0.00,,,0.00,weatherlink.com 1.10,2013-03-12 10:57:00,
2013-03-12 06:12:00,29.3,27.0,30.09,SSW,211,0.0,0.0,91,0.00,,,0.00,weatherlink.com 1.10,2013-03-12 11:12:00,
2013-03-12 06:27:00,29.0,27.0,30.10,SSW,212,0.0,0.0,92,0.00,,,0.00,weatherlink.com 1.10,2013-03-12 11:27:00,
2013-03-12 06:42:00,29.1,27.0,30.10,SSW,211,0.0,0.0,92,0.00,,,0.00,weatherlink.com 1.10,2013-03-12 11:42:00,
2013-03-12 06:57:00,28.8,27.0,30.11,SSW,211,0.0,0.0,93,0.00,,,0.00,weatherlink.com 1.10,2013-03-12 11:57:00,
2013-03-12 07:12:00,28.5,27.0,30.11,SSW,211,0.0,0.0,93,0.00,,,0.00,weatherlink.com 1.10,2013-03-12 12:12:00,
2013-03-12 07:27:00,28.1,26.0,30.11,SSW,212,0.0,0.0,93,0.00,,,0.00,weatherlink.com 1.10,2013-03-12 12:27:00,
2013-03-12 07:42:00,27.9,26.0,30.11,SSW,211,0.0,0.0,93,0.00,,,0.00,weatherlink.com 1.10,2013-03-12 12:42:00,
2013-03-12 07:57:00,27.8,26.0,30.12,SSW,211,0.0,0.0,93,0.00,,,0.00,weatherlink.com 1.10,2013-03-12 12:57:00,
2013-03-12 08:12:00,28.9,27.0,30.12,SSW,211,0.0,0.0,94,0.00,,,0.00,weatherlink.com 1.10,2013-03-12 13:12:00,
2013-03-12 08:27:00,30.9,29.0,30.13,SSW,211,0.0,0.0,94,0.00,,,0.00,weatherlink.com 1.10,2013-03-12 13:27:00,
2013-03-12 08:42:00,33.4,31.0,30.13,SSW,211,0.0,0.0,92,0.00,,,0.00,weatherlink.com 1.10,2013-03-12 13:42:00,
2013-03-12 08:57:00,39.0,36.0,30.14,SSW,211,0.0,0.0,87,0.00,,,0.00,weatherlink.com 1.10,2013-03-12 13:57:00,
2013-03-12 09:12:00,42.9,34.0,30.14,SSW,211,0.0,1.0,71,0.00,,,0.00,weatherlink.com 1.10,2013-03-12 14:12:00,
2013-03-12 09:27:00,47.7,36.0,30.14,NE,48,0.0,2.0,63,0.00,,,0.00,weatherlink.com 1.10,2013-03-12 14:27:00,
2013-03-12 09:42:00,52.2,34.0,30.14,ENE,73,1.0,91.0,50,0.00,,,0.00,weatherlink.com 1.10,2013-03-12 14:42:00,
2013-03-12 09:57:00,53.3,36.0,30.15,SE,134,0.0,23.0,53,0.00,,,0.00,weatherlink.com 1.10,2013-03-12 14:57:00,
2013-03-12 10:12:00,57.0,34.0,30.15,ENE,75,3.0,10.0,43,0.00,,,0.00,weatherlink.com 1.10,2013-03-12 15:12:00,
2013-03-12 10:28:00,60.1,31.0,30.15,SW,225,5.0,9.0,34,0.00,,,0.00,weatherlink.com 1.10,2013-03-12 15:28:00,
2013-03-12 10:43:00,61.4,33.0,30.15,WSW,246,4.0,11.0,34,0.00,,,0.00,weatherlink.com 1.10,2013-03-12 15:43:00,
2013-03-12 10:58:00,61.9,31.0,30.16,South,177,3.0,14.0,31,0.00,,,0.00,weatherlink.com 1.10,2013-03-12 15:58:00,
2013-03-12 11:13:00,63.1,31.0,30.16,South,169,5.0,13.0,30,0.00,,,0.00,weatherlink.com 1.10,2013-03-12 16:13:00,
2013-03-12 11:28:00,64.0,31.0,30.15,SSW,204,5.0,13.0,29,0.00,,,0.00,weatherlink.com 1.10,2013-03-12 16:28:00,
2013-03-12 11:43:00,65.4,29.0,30.15,SW,214,10.0,16.0,26,0.00,,,0.00,weatherlink.com 1.10,2013-03-12 16:43:00,
2013-03-12 11:58:00,66.2,28.0,30.15,SSE,164,6.0,14.0,24,0.00,,,0.00,weatherlink.com 1.10,2013-03-12 16:58:00,
2013-03-12 12:13:00,67.6,29.0,30.15,SSW,203,9.0,12.0,24,0.00,,,0.00,weatherlink.com 1.10,2013-03-12 17:13:00,
2013-03-12 12:28:00,68.0,29.0,30.15,SSW,200,8.0,13.0,23,0.00,,,0.00,weatherlink.com 1.10,2013-03-12 17:28:00,
2013-03-12 12:43:00,68.8,31.0,30.15,SE,132,5.0,15.0,25,0.00,,,0.00,weatherlink.com 1.10,2013-03-12 17:43:00,
2013-03-12 12:58:00,70.1,31.0,30.14,SSW,211,5.0,14.0,23,0.00,,,0.00,weatherlink.com 1.10,2013-03-12 17:58:00,
2013-03-12 13:13:00,70.2,30.0,30.14,SSW,201,8.0,18.0,22,0.00,,,0.00,weatherlink.com 1.10,2013-03-12 18:13:00,
2013-03-12 13:28:00,71.9,32.0,30.13,SSW,210,9.0,12.0,23,0.00,,,0.00,weatherlink.com 1.10,2013-03-12 18:28:00,
2013-03-12 13:43:00,72.5,30.0,30.12,SW,230,10.0,14.0,21,0.00,,,0.00,weatherlink.com 1.10,2013-03-12 18:43:00,
2013-03-12 13:58:00,72.7,28.0,30.12,WSW,243,10.0,17.0,19,0.00,,,0.00,weatherlink.com 1.10,2013-03-12 18:58:00,
2013-03-12 14:13:00,73.6,29.0,30.11,SW,232,5.0,15.0,19,0.00,,,0.00,weatherlink.com 1.10,2013-03-12 19:13:00,
2013-03-12 14:28:00,74.4,31.0,30.10,SW,231,3.0,15.0,20,0.00,,,0.00,weatherlink.com 1.10,2013-03-12 19:28:00,
2013-03-12 14:43:00,74.1,28.0,30.09,SSW,192,7.0,13.0,18,0.00,,,0.00,weatherlink.com 1.10,2013-03-12 19:43:00,
2013-03-12 14:58:00,74.5,28.0,30.09,SSW,195,3.0,14.0,18,0.00,,,0.00,weatherlink.com 1.10,2013-03-12 19:58:00,
2013-03-12 15:13:00,75.3,29.0,30.09,WNW,285,7.0,17.0,18,0.00,,,0.00,weatherlink.com 1.10,2013-03-12 20:13:00,
2013-03-12 15:28:00,75.7,29.0,30.08,SSW,208,5.0,10.0,18,0.00,,,0.00,weatherlink.com 1.10,2013-03-12 20:28:00,
2013-03-12 15:43:00,76.1,30.0,30.08,SW,214,8.0,11.0,18,0.00,,,0.00,weatherlink.com 1.10,2013-03-12 20:43:00,
2013-03-12 15:58:00,75.9,28.0,30.07,SW,218,6.0,12.0,17,0.00,,,0.00,weatherlink.com 1.10,2013-03-12 20:58:00,
2013-03-12 16:13:00,76.1,27.0,30.07,SW,221,4.0,14.0,16,0.00,,,0.00,weatherlink.com 1.10,2013-03-12 21:13:00,
2013-03-12 16:28:00,76.4,28.0,30.07,SW,216,8.0,12.0,17,0.00,,,0.00,weatherlink.com 1.10,2013-03-12 21:28:00,
2013-03-12 16:43:00,77.2,28.0,30.07,SSE,162,4.0,12.0,16,0.00,,,0.00,weatherlink.com 1.10,2013-03-12 21:43:00,
2013-03-12 16:58:00,77.2,28.0,30.07,SSW,197,2.0,8.0,16,0.00,,,0.00,weatherlink.com 1.10,2013-03-12 21:58:00,
2013-03-12 17:13:00,76.6,26.0,30.07,SW,233,7.0,10.0,15,0.00,,,0.00,weatherlink.com 1.10,2013-03-12 22:13:00,
2013-03-12 17:29:00,76.8,26.0,30.07,SSE,149,4.0,7.0,15,0.00,,,0.00,weatherlink.com 1.10,2013-03-12 22:29:00,
2013-03-12 17:44:00,76.9,27.0,30.07,SW,217,4.0,7.0,16,0.00,,,0.00,weatherlink.com 1.10,2013-03-12 22:44:00,
2013-03-12 17:58:00,76.4,24.0,30.07,SW,236,3.0,11.0,14,0.00,,,0.00,weatherlink.com 1.10,2013-03-12 22:58:00,
2013-03-12 18:14:00,76.4,25.0,30.07,SSW,207,4.0,9.0,15,0.00,,,0.00,weatherlink.com 1.10,2013-03-12 23:14:00,
2013-03-12 18:29:00,76.0,27.0,30.07,SW,225,5.0,8.0,16,0.00,,,0.00,weatherlink.com 1.10,2013-03-12 23:29:00,
2013-03-12 18:44:00,75.4,25.0,30.08,SSW,211,2.0,7.0,15,0.00,,,0.00,weatherlink.com 1.10,2013-03-12 23:44:00,
2013-03-12 18:59:00,74.6,25.0,30.08,South,170,1.0,7.0,16,0.00,,,0.00,weatherlink.com 1.10,2013-03-12 23:59:00,
2013-03-12 19:14:00,72.4,25.0,30.08,SSW,210,1.0,7.0,17,0.00,,,0.00,weatherlink.com 1.10,2013-03-13 00:14:00,
2013-03-12 19:29:00,70.1,28.0,30.09,SSW,193,1.0,2.0,21,0.00,,,0.00,weatherlink.com 1.10,2013-03-13 00:29:00,
2013-03-12 19:44:00,67.3,28.0,30.10,South,176,0.0,0.0,23,0.00,,,0.00,weatherlink.com 1.10,2013-03-13 00:44:00,
2013-03-12 19:59:00,63.6,31.0,30.10,South,176,0.0,1.0,29,0.00,,,0.00,weatherlink.com 1.10,2013-03-13 00:59:00,
2013-03-12 20:14:00,59.3,29.0,30.11,South,176,0.0,1.0,32,0.00,,,0.00,weatherlink.com 1.10,2013-03-13 01:14:00,
2013-03-12 20:29:00,56.8,30.0,30.11,SSW,211,1.0,1.0,36,0.00,,,0.00,weatherlink.com 1.10,2013-03-13 01:29:00,
2013-03-12 20:59:00,52.8,31.0,30.13,NNW,336,0.0,1.0,44,0.00,,,0.00,weatherlink.com 1.10,2013-03-13 01:59:00,
2013-03-12 21:14:00,52.0,32.0,30.14,NNW,335,0.0,0.0,46,0.00,,,0.00,weatherlink.com 1.10,2013-03-13 02:14:00,
2013-03-12 21:29:00,53.1,32.0,30.15,West,271,2.0,5.0,45,0.00,,,0.00,weatherlink.com 1.10,2013-03-13 02:29:00,
2013-03-12 21:44:00,58.9,32.0,30.16,WNW,286,0.0,4.0,36,0.00,,,0.00,weatherlink.com 1.10,2013-03-13 02:44:00,
2013-03-12 21:59:00,57.6,31.0,30.17,WNW,293,0.0,1.0,36,0.00,,,0.00,weatherlink.com 1.10,2013-03-13 02:59:00,
2013-03-12 22:14:00,54.9,30.0,30.18,NW,320,0.0,2.0,38,0.00,,,0.00,weatherlink.com 1.10,2013-03-13 03:14:00,
2013-03-12 22:29:00,52.6,32.0,30.19,NW,321,0.0,0.0,46,0.00,,,0.00,weatherlink.com 1.10,2013-03-13 03:29:00,
2013-03-12 22:44:00,50.5,32.0,30.19,NW,321,0.0,0.0,50,0.00,,,0.00,weatherlink.com 1.10,2013-03-13 03:44:00,
2013-03-12 22:59:00,48.9,33.0,30.20,NW,321,0.0,0.0,55,0.00,,,0.00,weatherlink.com 1.10,2013-03-13 03:59:00,
2013-03-12 23:14:00,47.8,33.0,30.21,NW,322,0.0,0.0,57,0.00,,,0.00,weatherlink.com 1.10,2013-03-13 04:14:00,
2013-03-12 23:29:00,47.3,35.0,30.21,SW,221,0.0,1.0,63,0.00,,,0.00,weatherlink.com 1.10,2013-03-13 04:29:00,
2013-03-12 23:44:00,46.6,34.0,30.22,SW,223,0.0,1.0,62,0.00,,,0.00,weatherlink.com 1.10,2013-03-13 04:44:00,
2013-03-12 23:59:00,48.7,35.0,30.21,North,9,0.0,2.0,59,0.00,,,0.00,weatherlink.com 1.10,2013-03-13 04:59:00,